Wind_Speed
65 63 59 56 56 57 58 56 55 54 55 54 53 54 55 56 56 56 57 57 57 57 58 60 59 56 53 50 48 45 44 45 46 46 46 47 49 52 55 57 58 59 59 59 59 59 59 58 57 56 56 55 55 54 52 52 52 52 52 50 50 50 49 45 41 39 36 35 35 36 36 34 33 34 34 36 37 38 38 39 40 41 42 42 41 42
63 59 55 55 57 59 59 57 56 56 57 56 54 54 55 56 57 57 58 59 59 59 61 63 61 57 54 51 48 46 43 44 45 44 44 45 47 49 50 51 55 58 59 60 60 60 60 59 59 58 57 56 56 56 55 54 54 54 53 52 51 51 51 47 43 41 39 36 36 38 39 37 37 37 37 38 39 40 41 42 42 42 42 41 41 42
59 54 54 57 58 59 59 58 57 57 57 56 54 54 55 56 57 58 60 61 60 60 63 63 62 59 56 51 49 47 44 43 40 38 40 42 44 46 47 48 51 55 58 60 61 61 62 61 60 59 59 58 58 57 57 56 56 55 55 54 53 52 52 50 47 45 45 42 39 40 39 38 37 38 39 40 41 42 43 44 44 43 42 41 42 43
57 54 55 57 58 60 59 57 56 56 56 54 53 54 55 56 57 58 61 61 60 62 64 64 63 60 57 52 49 46 43 40 35 32 36 40 42 45 47 48 50 53 56 59 62 63 63 63 61 60 60 59 59 58 58 58 57 57 56 56 55 54 53 52 50 49 48 46 43 42 42 40 39 39 41 42 42 43 43 44 44 42 41 41 42 43
59 57 57 58 59 60 58 57 55 54 53 52 52 52 54 56 57 59 62 61 61 64 64 64 63 60 56 52 48 46 42 36 31 30 33 35 39 44 45 49 52 52 54 56 60 63 63 63 62 61 61 60 59 59 59 59 58 58 57 57 57 56 55 54 53 52 51 49 46 45 46 47 46 45 44 44 44 44 43 43 43 41 41 42 43 44
61 59 59 59 59 59 57 56 54 53 52 51 51 52 55 57 58 60 61 59 60 62 62 62 62 59 55 52 49 46 42 36 31 32 35 32 35 43 43 46 52 53 53 55 56 59 61 62 62 62 61 61 60 60 59 59 58 58 58 58 58 57 56 55 54 53 52 51 49 48 49 50 50 49 47 46 45 44 43 42 41 41 42 44 45 46
62 60 60 60 60 59 58 55 54 53 53 51 51 53 57 59 60 60 59 58 59 60 60 61 60 57 54 51 48 46 44 40 38 39 40 37 37 42 42 43 50 53 53 53 54 55 57 59 61 62 62 61 61 60 60 59 58 58 58 58 58 57 57 56 54 53 52 51 50 49 50 50 49 48 47 46 45 44 43 42 42 42 44 45 46 48
63 62 62 61 61 60 57 54 53 53 53 52 53 56 60 61 61 60 59 58 59 61 61 59 57 54 51 49 48 48 46 44 43 43 43 40 40 43 43 44 48 50 51 52 53 54 54 56 58 60 61 61 61 61 60 59 59 59 59 58 58 57 57 56 55 53 52 51 50 49 50 50 49 48 46 45 44 43 43 44 44 44 45 46 48 48
65 64 63 62 61 58 54 53 54 55 55 54 57 61 63 63 62 61 59 59 60 63 60 56 53 51 48 47 47 48 47 46 46 46 45 47 49 47 46 46 45 45 48 52 54 54 53 54 55 56 58 60 61 61 60 60 59 59 59 58 58 57 57 56 56 55 54 52 51 51 51 51 51 49 48 46 45 45 45 45 46 46 47 48 49 49
67 65 65 65 61 57 55 56 57 57 57 58 62 64 65 65 64 62 61 60 62 62 57 51 48 47 46 46 46 46 44 44 46 48 50 55 57 54 52 51 47 43 46 51 54 54 53 52 52 53 55 56 58 59 59 60 60 60 59 59 58 58 57 57 56 56 55 54 53 52 52 53 52 51 50 49 49 49 49 49 49 50 50 51 51 50
69 68 68 66 62 59 60 60 60 60 59 62 66 66 66 66 65 63 61 61 63 58 51 46 44 45 46 45 45 44 44 45 48 51 55 58 59 59 58 55 50 47 47 50 52 54 53 51 51 51 51 53 55 56 57 58 59 60 59 59 58 58 57 57 57 56 55 54 53 53 53 53 52 52 51 51 52 53 53 53 53 52 52 52 52 50
71 69 67 65 63 63 63 63 63 62 62 66 69 68 68 68 66 64 61 61 57 49 46 45 43 44 44 43 43 44 47 50 52 55 57 59 59 60 60 57 54 52 51 51 51 52 53 51 50 50 50 52 53 54 54 56 58 58 58 57 57 56 56 56 57 56 56 55 55 54 54 53 53 53 53 53 54 54 54 54 53 53 53 52 51 48
72 69 66 66 65 63 63 64 64 63 63 68 71 69 68 67 65 62 58 55 47 42 46 47 45 44 42 41 44 46 49 52 53 54 57 58 59 59 59 57 56 55 55 54 52 52 52 51 49 49 49 50 51 51 52 54 55 55 54 54 54 55 55 56 56 56 56 55 55 55 55 54 54 53 53 54 54 54 54 53 53 52 52 51 49 47
71 70 68 67 64 62 63 62 62 60 62 67 69 66 65 64 62 57 54 50 43 43 48 49 48 44 40 42 45 46 48 50 51 51 55 58 58 58 57 55 54 54 53 53 51 51 51 50 49 48 48 48 49 49 50 51 52 51 51 51 52 53 53 54 55 55 55 55 55 54 54 54 53 53 53 53 54 53 53 52 52 51 50 49 48 47
69 68 65 63 61 61 61 60 60 61 63 67 68 66 64 62 59 56 54 50 45 47 51 51 49 44 39 41 44 44 45 47 48 50 55 57 54 55 56 54 52 52 52 50 49 49 49 49 49 48 47 47 47 48 49 50 49 49 49 49 49 49 50 52 52 53 53 53 53 53 52 52 52 52 52 53 53 53 52 51 51 50 50 49 49 49
67 64 61 62 62 62 61 61 64 66 67 69 70 68 63 59 58 58 57 54 51 53 56 54 49 43 39 40 42 42 42 43 46 50 54 55 53 54 55 54 53 52 51 49 49 48 48 48 48 48 47 46 46 47 48 47 46 46 47 46 46 47 48 50 50 51 51 51 51 51 51 51 52 52 53 54 54 52 52 51 51 51 51 51 51 51
62 61 62 64 64 64 63 64 66 67 67 69 70 65 58 58 62 63 60 57 56 57 57 53 47 42 40 41 41 41 39 38 41 46 50 53 55 57 56 55 54 53 51 49 49 48 46 46 46 46 46 45 45 46 47 46 45 46 46 45 46 48 49 50 50 50 50 50 51 51 52 52 53 54 54 54 53 53 52 52 52 52 53 53 53 53
61 61 63 64 63 64 66 68 69 69 69 70 68 62 60 66 69 66 63 61 59 58 55 51 46 41 40 39 39 38 34 33 38 44 49 52 54 56 56 56 55 55 54 52 49 48 45 45 45 45 45 45 45 46 46 46 47 47 46 46 48 49 50 50 49 50 51 51 52 52 53 53 54 54 54 53 53 53 53 53 54 55 55 55 56 55
63 63 64 63 63 65 68 71 72 71 70 69 66 65 68 72 70 66 64 61 59 58 54 50 46 42 39 37 38 38 36 38 43 48 50 52 54 55 55 57 56 56 55 53 50 48 46 45 45 45 45 44 44 45 46 46 46 47 47 47 49 49 50 49 49 50 50 51 52 52 53 54 55 54 53 52 51 51 50 51 51 53 54 55 56 57
64 64 64 63 64 67 70 70 70 69 69 69 70 72 73 72 69 66 64 60 59 58 54 51 47 42 38 36 38 41 41 45 50 50 50 52 54 55 56 56 56 55 54 52 50 48 46 45 46 45 44 43 44 44 44 44 45 46 47 48 49 50 50 50 50 50 50 51 52 53 54 54 53 53 51 49 49 48 48 48 49 50 51 51 52 54
64 64 64 64 66 69 69 66 64 65 67 70 72 73 72 70 68 67 65 63 61 58 54 51 46 41 39 38 41 44 44 46 49 50 50 51 51 54 55 55 54 52 51 50 49 48 47 46 47 45 43 44 45 44 43 44 44 45 47 49 51 52 52 52 52 51 51 51 52 53 53 52 51 51 50 49 48 48 48 49 50 50 50 50 50 51
63 64 65 66 67 66 63 61 63 67 69 70 72 71 69 67 67 67 65 62 59 56 53 50 45 42 42 42 44 47 47 48 49 49 51 51 50 52 54 53 51 50 50 49 48 48 48 47 47 45 43 45 46 45 45 45 46 47 48 50 52 53 54 53 53 52 51 51 51 51 51 50 51 51 50 50 50 50 51 51 51 51 51 51 51 50
64 65 65 65 64 63 62 64 67 70 71 72 72 72 71 70 69 67 64 60 58 56 52 48 45 44 44 44 46 49 50 50 49 49 50 51 51 52 52 52 51 49 49 49 48 49 49 48 48 46 45 46 46 46 46 46 47 48 49 49 50 51 52 53 52 52 51 51 50 50 50 50 51 51 52 53 52 52 52 52 51 51 51 50 50 50
63 64 64 64 63 62 64 66 68 70 72 73 73 73 74 72 69 66 64 61 60 57 54 49 45 44 43 43 46 49 50 49 49 48 49 50 51 52 52 52 50 49 49 48 49 50 50 49 48 47 47 47 46 47 47 47 48 48 48 48 48 48 50 50 51 51 51 51 51 51 52 52 53 54 54 54 54 54 53 51 51 51 52 51 51 51
61 62 63 64 63 64 65 66 69 71 72 72 72 73 73 72 69 67 66 65 63 59 54 50 46 44 44 44 46 48 49 49 47 46 47 49 51 51 51 51 50 48 47 48 49 50 50 49 48 48 48 47 47 47 47 47 48 48 49 48 48 48 49 49 50 51 52 53 53 54 54 54 55 55 55 55 55 54 52 52 53 53 53 53 52 51
60 61 62 62 62 62 64 66 68 69 70 70 71 72 72 72 69 68 68 66 62 57 53 49 46 45 45 45 46 48 48 48 46 46 47 49 50 49 49 49 50 48 47 48 49 49 49 49 48 48 47 47 47 48 48 48 49 49 49 49 49 49 49 50 50 52 53 54 55 56 56 55 55 56 56 56 55 54 54 55 56 54 53 52 52 50
58 60 60 60 61 62 64 66 68 69 69 69 69 71 72 71 69 68 68 65 61 57 53 49 46 46 46 46 46 47 47 47 47 47 48 49 49 48 48 48 49 50 49 49 49 49 49 49 49 48 48 47 47 49 50 50 50 50 50 50 50 49 50 50 51 52 53 55 56 56 55 55 56 57 58 58 57 57 58 59 57 55 53 52 51 50
56 57 57 58 60 62 64 66 69 70 69 69 70 72 73 72 70 69 68 64 60 57 53 50 48 47 47 47 47 47 47 47 48 49 49 49 49 47 46 47 48 50 51 52 52 51 49 48 49 48 47 46 47 49 50 50 50 51 51 51 50 49 49 50 51 52 53 54 55 55 55 56 58 59 59 60 60 60 60 59 58 56 54 53 52 52
54 55 56 58 60 61 62 64 66 67 68 69 72 74 74 73 71 69 66 63 59 56 53 51 50 49 48 48 47 48 48 48 49 48 48 47 47 46 45 46 47 49 51 53 54 52 50 49 49 48 47 47 48 49 49 49 50 50 50 49 48 48 49 50 51 52 53 54 55 56 57 58 59 60 60 60 59 58 57 57 57 57 56 56 55 55
52 54 55 55 57 58 60 61 61 63 66 69 71 73 73 72 70 68 66 62 59 56 54 53 51 50 49 48 48 48 48 48 48 47 46 46 46 46 46 46 47 48 50 52 53 53 51 49 48 48 49 49 49 49 49 49 50 49 49 48 48 48 50 51 52 52 53 54 55 56 57 58 59 59 58 57 57 57 57 57 57 58 59 58 58 57
50 52 52 52 54 57 57 57 58 61 65 68 70 71 70 70 69 67 65 62 59 56 55 53 50 47 47 47 47 47 47 47 47 47 47 48 48 47 47 46 47 47 49 50 51 52 53 51 49 49 50 51 51 50 50 50 50 50 49 49 49 50 51 52 52 52 52 53 54 55 57 58 58 58 58 59 59 60 60 60 60 61 61 61 60 60
48 51 51 51 53 54 53 54 57 60 63 66 67 68 68 68 68 66 64 61 58 55 52 49 45 44 44 45 46 47 48 48 48 48 49 50 49 48 47 47 47 47 47 47 48 50 52 53 52 52 52 51 51 50 50 50 50 50 50 50 50 50 50 51 51 51 52 53 54 56 58 59 60 61 61 62 62 62 62 62 63 63 63 63 63 63
46 49 49 49 51 51 50 52 57 60 60 63 65 65 66 67 66 65 63 60 57 53 50 47 46 45 45 46 47 48 49 49 49 50 51 51 50 50 48 47 46 46 46 47 48 49 52 53 54 53 52 51 50 49 49 50 50 50 49 49 49 49 49 49 50 50 51 53 55 56 59 60 62 62 63 63 63 64 64 64 64 64 64 64 64 64
45 46 46 45 48 48 48 51 56 59 58 59 61 62 64 65 64 63 61 59 55 52 49 48 48 47 46 47 48 49 49 50 50 51 52 51 51 50 48 47 47 46 47 48 48 49 52 54 54 52 50 49 49 50 50 49 49 49 49 49 48 48 48 49 49 50 52 53 55 57 59 61 62 63 64 64 64 64 65 64 64 64 64 63 63 63
42 43 42 43 45 48 51 53 56 57 57 57 59 61 62 62 62 61 59 56 53 51 50 50 49 47 47 47 48 49 50 50 50 51 52 52 51 50 49 48 48 48 48 49 49 49 52 54 54 52 51 50 50 50 49 49 49 48 48 48 48 48 49 49 50 52 53 55 56 58 60 62 63 64 65 65 65 65 64 64 64 63 63 63 63 62
39 39 40 42 45 48 50 53 54 55 56 57 58 59 59 59 59 58 56 54 52 51 51 50 49 48 48 47 48 49 49 50 51 52 52 52 51 50 50 49 49 49 49 49 48 49 52 55 55 54 52 50 49 49 48 48 48 48 49 49 49 49 50 51 52 53 55 56 57 59 61 62 63 64 64 64 64 63 63 63 62 62 62 63 63 63
38 39 40 43 47 47 47 50 52 53 55 57 57 57 57 56 55 54 53 52 51 51 50 50 49 49 48 48 48 49 49 51 52 52 52 51 51 51 51 51 51 50 49 49 49 50 53 56 57 55 53 50 49 48 48 48 48 49 49 49 49 50 51 52 54 55 56 57 58 60 61 61 62 62 62 62 62 62 62 62 62 63 63 64 64 65
38 39 40 43 46 47 46 49 51 53 54 55 55 55 55 54 53 53 52 51 50 50 50 50 49 48 48 48 48 49 50 50 51 51 52 52 53 52 53 54 53 52 51 50 50 50 52 55 57 56 54 52 50 49 49 49 49 49 50 49 50 51 52 54 55 57 58 59 60 60 61 61 61 61 61 61 61 62 62 62 63 64 65 66 66 66
38 38 40 42 44 46 48 50 51 52 53 53 53 53 52 52 51 51 50 49 48 49 50 50 50 49 49 49 49 49 49 50 51 52 52 52 53 53 54 55 55 53 52 51 50 50 51 53 57 57 55 53 52 51 51 51 51 51 51 51 52 53 55 56 58 59 59 60 60 61 61 62 62 62 62 62 62 62 63 64 65 66 66 67 67 67
38 38 38 38 39 42 47 50 51 52 52 52 51 50 50 50 50 49 48 47 48 50 51 52 52 51 51 51 51 50 51 52 52 52 51 52 53 53 54 55 55 54 52 51 50 50 51 52 54 56 55 54 54 53 53 53 53 53 53 54 55 56 58 58 59 60 60 61 61 62 62 63 64 63 63 63 63 64 64 65 67 67 68 68 69 70
35 35 35 35 36 38 42 46 48 50 50 50 49 49 49 49 48 48 48 49 51 53 53 53 53 53 52 52 52 52 52 52 51 51 52 53 53 54 54 54 54 54 52 51 50 50 51 51 53 54 55 55 55 55 54 54 54 55 55 56 57 58 59 59 60 60 61 62 63 63 64 64 64 63 62 63 63 64 66 67 68 69 70 71 72 73
34 34 35 36 37 38 40 43 45 46 46 47 47 47 47 46 46 48 50 52 54 55 54 55 55 54 53 52 53 53 52 51 51 52 53 53 52 53 53 53 52 52 51 51 51 50 51 52 53 54 55 55 55 55 55 55 56 56 57 57 58 59 59 60 61 62 63 64 64 65 65 64 62 62 62 63 64 66 68 69 71 72 74 75 75 75
37 37 37 38 39 41 42 42 43 44 46 46 46 45 45 46 48 50 51 53 55 55 55 55 54 53 53 53 53 53 52 51 51 52 52 51 50 50 50 50 50 50 50 51 51 51 51 53 54 55 56 56 57 57 56 56 56 57 57 57 58 59 60 61 62 64 65 65 65 65 64 62 61 61 63 64 66 68 70 72 74 75 77 77 78 77
40 40 40 40 41 42 43 44 46 47 48 48 48 47 48 50 51 52 52 53 54 54 53 53 53 52 52 52 52 52 51 50 50 50 50 49 48 47 47 48 48 49 50 50 50 51 52 53 54 55 56 56 56 56 56 56 56 57 57 57 58 59 61 62 64 65 65 65 64 62 60 59 61 62 64 66 69 71 73 75 77 78 78 79 78 78
39 40 41 42 43 44 46 47 49 49 49 48 48 49 50 51 51 51 51 52 52 51 51 51 50 49 48 47 47 48 49 48 47 47 47 46 45 46 46 47 48 49 49 49 50 51 52 53 54 54 55 55 55 55 56 56 56 56 57 58 59 61 62 64 65 65 64 62 60 59 59 60 62 65 67 70 72 75 76 78 79 79 79 79 78 77
39 40 41 42 43 44 45 46 47 47 47 48 48 49 49 49 49 49 49 50 50 49 48 48 46 44 43 42 41 42 43 42 42 42 43 43 43 43 44 45 47 48 48 49 50 50 51 52 53 54 54 55 55 55 56 56 57 58 58 59 61 62 63 64 63 62 60 58 58 59 61 63 66 69 71 73 75 77 78 79 79 79 78 78 77 76
40 40 40 40 41 42 43 44 45 45 46 47 47 47 48 47 47 47 47 47 46 44 44 43 42 41 40 39 37 36 37 38 38 39 40 40 40 41 42 43 44 45 46 48 50 51 51 52 53 54 54 55 55 56 57 57 58 58 59 60 61 61 61 60 58 57 57 58 60 62 65 68 70 72 74 75 76 77 78 78 78 77 77 76 76 75
38 39 39 40 40 41 42 43 44 44 45 45 46 46 46 45 44 43 43 43 40 39 38 38 37 36 36 35 33 31 31 33 34 36 38 39 39 40 40 41 42 43 45 47 49 50 51 52 53 53 54 54 55 56 57 57 58 58 58 58 58 57 57 56 56 57 59 62 64 66 68 70 72 74 75 76 76 76 76 76 76 75 75 75 75 75
37 37 39 40 41 41 42 43 44 44 43 43 43 43 43 42 40 40 39 38 35 33 33 33 33 32 31 30 29 28 27 28 30 33 35 37 39 40 41 41 42 44 45 47 49 50 51 51 52 52 53 53 54 55 55 56 56 55 55 55 54 54 55 57 58 60 62 64 66 68 70 72 73 75 75 75 75 74 74 74 74 74 75 74 74 72
36 37 38 39 40 41 42 42 41 40 39 39 39 38 38 37 37 37 36 34 32 31 30 30 30 29 27 26 26 26 25 25 27 29 31 34 38 41 42 43 44 45 47 47 48 48 49 49 50 50 51 51 52 53 53 53 52 52 52 52 53 55 56 58 61 63 65 66 68 70 71 72 73 73 73 73 73 73 72 73 73 73 73 72 70 69
33 34 35 36 37 38 38 38 37 36 35 35 35 34 34 34 34 35 35 34 32 30 29 28 28 27 27 26 26 26 25 26 27 28 29 31 35 38 40 41 42 44 45 45 45 46 47 48 48 49 49 49 49 49 50 50 50 51 51 53 55 57 59 61 63 65 67 68 70 70 71 71 71 70 71 71 72 72 71 71 71 70 69 68 67 66
Wind_Direction
234 234 235 237 238 239 239 238 237 236 237 236 236 238 239 240 241 241 241 240 239 239 240 241 241 241 240 239 237 236 235 239 243 243 244 245 245 244 243 242 241 241 242 243 243 243 243 243 243 244 245 246 248 249 251 252 253 255 257 258 259 261 262 262 263 266 269 269 270 274 275 275 275 277 278 281 285 289 291 292 293 291 288 289 290 291
232 233 234 234 235 235 236 235 235 235 235 234 234 236 238 239 241 241 241 241 240 240 241 242 242 240 239 238 238 237 235 237 241 243 245 247 248 248 247 247 245 242 242 242 243 243 243 244 244 244 245 246 247 248 250 251 253 254 256 258 259 260 261 261 261 261 264 267 271 274 275 272 271 274 277 281 285 289 290 291 292 290 287 286 288 290
231 231 231 232 233 234 234 234 234 234 234 233 233 234 237 239 240 241 242 242 242 242 243 244 244 242 240 238 238 238 237 237 240 245 251 252 252 253 253 250 248 246 244 242 243 243 244 244 244 245 246 247 248 249 250 251 252 253 255 257 259 261 261 261 261 261 262 265 268 271 272 271 270 272 275 280 284 287 288 289 290 289 286 286 288 289
227 227 229 231 232 232 233 233 233 233 234 233 233 234 236 238 240 242 243 242 242 242 243 243 244 243 241 238 237 237 238 240 240 243 252 258 260 258 255 251 249 248 246 243 243 243 244 244 244 245 247 247 248 249 250 251 252 253 255 257 259 261 262 262 262 262 264 265 265 267 269 270 272 274 275 279 283 285 287 288 288 285 282 285 288 289
224 223 225 227 229 231 231 231 232 233 234 234 233 234 236 238 239 240 241 242 242 242 243 243 243 243 242 239 236 234 234 237 237 234 239 253 265 263 256 250 248 247 246 244 243 243 244 245 245 246 247 247 248 250 251 252 253 254 256 258 259 261 262 263 263 263 264 266 265 265 267 269 272 275 277 279 283 285 286 286 285 281 280 284 288 290
223 222 223 225 226 228 229 230 231 232 232 233 233 234 236 237 237 238 241 241 241 242 242 242 242 241 240 238 235 231 227 223 222 225 225 231 249 257 256 251 247 245 245 244 244 243 243 244 245 246 247 248 249 250 251 252 254 255 257 258 259 261 262 264 264 264 264 265 264 264 268 271 273 276 279 281 283 284 284 283 281 279 280 284 288 291
222 222 223 224 225 226 226 226 228 230 231 230 231 233 234 235 236 238 240 240 241 241 241 240 240 239 237 235 232 228 223 216 211 216 220 220 230 245 254 252 245 243 243 244 245 245 244 244 244 245 246 248 249 250 251 252 254 255 256 257 259 260 262 263 264 265 264 264 265 266 269 273 275 278 281 283 283 283 281 280 278 278 281 285 288 291
221 221 223 224 224 225 225 225 226 227 229 229 230 231 233 235 235 236 238 239 240 241 239 238 239 238 236 233 230 226 220 214 211 213 215 217 225 238 247 246 242 242 243 245 246 246 245 244 244 244 245 247 248 249 251 252 253 254 255 257 258 260 261 262 264 265 265 265 265 266 269 273 276 279 282 282 282 280 278 277 277 279 283 286 289 290
221 221 222 223 224 224 225 225 225 225 226 227 228 230 231 233 234 235 236 237 238 239 239 237 237 237 236 233 231 227 220 214 213 213 212 216 222 231 239 240 239 243 245 245 246 246 246 245 245 245 245 246 247 249 250 251 253 254 255 256 258 259 261 262 263 265 266 266 266 266 268 271 274 277 280 280 280 279 278 278 279 281 284 286 288 287
220 220 221 222 222 222 223 223 224 225 224 225 228 229 230 232 233 234 235 236 238 240 240 239 238 237 235 232 230 228 223 217 216 215 217 221 226 232 240 241 239 241 244 245 245 246 246 246 246 246 247 247 248 249 250 251 252 254 255 256 258 259 261 263 264 265 266 267 268 268 269 271 273 275 277 278 278 278 279 280 282 283 285 286 286 285
218 219 220 222 220 220 221 221 222 223 224 226 228 229 230 232 233 233 234 236 238 240 242 242 240 238 235 232 229 226 222 220 218 219 222 227 230 234 240 242 240 240 242 244 245 246 247 247 247 247 247 248 248 249 249 250 252 253 254 255 257 259 261 263 264 266 267 268 269 270 271 271 273 275 276 277 278 278 280 281 282 284 285 286 286 284
218 218 220 222 221 220 221 221 222 222 223 226 229 229 230 232 233 234 234 237 239 243 246 245 242 238 235 231 229 226 222 220 220 221 224 228 232 235 238 241 241 240 241 244 247 248 247 247 246 246 247 248 249 249 250 251 251 252 253 255 257 259 260 262 264 266 267 269 270 271 272 273 274 275 276 277 277 278 280 281 282 283 284 285 285 284
218 218 219 221 222 222 223 223 224 223 224 227 230 231 232 234 235 236 237 239 242 245 246 245 242 239 233 229 228 226 223 221 221 224 227 228 232 236 238 239 241 241 241 244 246 247 247 246 246 246 246 247 249 250 251 252 253 254 255 256 257 258 260 262 263 265 267 268 270 271 272 274 275 276 276 277 277 278 279 281 282 283 283 283 283 284
220 219 219 221 223 224 226 227 228 227 228 231 233 234 234 237 239 240 242 243 242 243 244 243 241 238 232 227 227 226 225 224 223 227 231 231 232 235 236 238 241 242 243 244 244 245 246 245 245 245 246 247 249 250 252 253 254 256 256 257 258 259 260 261 263 264 266 267 269 270 272 273 274 275 276 276 277 278 279 280 281 281 281 281 282 284
220 220 221 223 224 226 227 228 229 229 229 232 234 234 234 237 239 241 241 241 240 240 243 242 240 237 232 228 227 226 227 226 224 226 232 234 235 236 237 238 240 242 243 243 243 243 243 244 244 244 245 246 248 249 251 252 254 256 257 257 258 258 260 261 262 263 265 266 268 270 271 272 273 274 275 276 277 278 278 279 279 279 280 280 281 283
218 218 219 221 222 224 226 227 228 228 228 230 232 233 233 236 239 239 238 237 235 236 238 239 236 234 233 230 227 227 227 228 228 229 233 235 236 238 239 240 241 243 243 243 244 243 242 243 244 245 246 246 247 248 249 251 252 254 255 256 257 258 259 260 261 263 264 266 268 269 270 272 273 273 275 277 277 277 277 277 278 279 279 280 281 282
217 216 217 218 219 220 222 224 227 228 229 231 233 233 233 235 236 236 235 234 234 235 236 238 235 231 231 229 225 226 228 230 233 235 237 238 238 238 240 241 242 242 242 244 245 245 244 244 245 246 247 247 247 248 248 249 250 251 252 254 256 257 258 259 261 262 264 266 267 269 271 271 272 274 276 277 277 278 277 277 277 278 278 279 280 281
215 215 217 217 217 219 219 221 224 226 227 230 232 232 232 233 234 233 233 231 232 234 235 237 236 231 230 228 223 222 225 230 237 240 240 240 240 240 241 241 242 241 242 243 244 245 245 246 247 247 247 247 247 248 248 248 248 249 251 253 254 255 257 258 260 262 264 266 268 269 270 271 273 274 276 278 278 279 278 278 278 278 278 278 279 280
212 214 216 216 217 219 220 220 221 223 224 227 229 229 230 232 233 233 233 232 233 234 234 235 235 231 229 227 221 217 216 221 230 236 237 237 238 240 240 240 240 240 241 242 243 244 245 246 247 247 247 247 247 248 248 249 250 250 251 252 253 254 256 257 260 262 264 266 267 268 270 272 274 275 277 278 279 279 279 280 280 280 280 279 279 279
213 215 216 216 217 220 221 221 222 223 224 226 226 227 228 230 231 233 233 233 233 234 233 232 232 230 228 225 220 217 216 219 225 231 234 235 235 236 237 238 239 240 241 242 243 244 244 245 245 245 246 247 248 249 250 251 252 252 252 252 254 255 256 257 260 262 264 265 267 269 271 272 273 275 276 277 278 279 279 281 282 282 282 282 281 281
214 215 217 218 219 221 222 222 223 225 227 227 228 229 230 230 231 232 232 231 231 231 231 231 229 228 227 224 219 218 219 222 227 232 235 236 236 236 237 238 239 240 241 242 243 244 244 244 245 245 246 247 248 249 251 252 254 255 254 254 255 256 258 260 261 263 264 266 268 270 271 272 273 275 276 276 278 278 279 281 283 283 283 283 284 284
215 216 218 219 220 222 223 223 224 226 227 228 229 231 231 232 233 234 234 233 232 232 231 229 227 226 226 222 217 217 219 222 226 231 235 237 238 239 239 240 240 240 240 241 241 243 244 245 246 246 246 248 249 250 251 252 254 255 255 256 257 258 260 261 262 264 265 267 269 272 273 273 274 276 277 278 279 280 280 282 283 284 284 284 284 285
215 217 219 220 221 221 222 222 223 224 225 226 227 228 229 229 230 232 233 234 234 234 232 229 226 225 225 222 218 217 219 222 225 228 233 236 238 240 240 241 240 239 239 238 239 240 242 243 246 247 247 248 250 250 251 252 254 255 256 257 259 260 261 262 263 264 266 268 271 273 274 275 276 278 279 279 280 281 281 282 283 284 284 284 285 286
215 217 219 220 220 220 222 223 224 224 224 225 225 226 227 227 227 229 230 231 231 231 229 226 224 224 225 224 221 219 221 223 226 229 232 235 237 239 240 241 240 239 239 239 239 240 241 242 244 246 247 249 250 251 252 253 254 256 258 259 260 262 263 264 264 266 268 270 272 273 275 276 278 279 280 280 280 280 280 280 282 283 284 284 285 286
217 219 220 220 220 219 220 222 224 225 225 225 225 226 227 227 226 226 227 228 227 227 226 223 220 222 225 224 222 221 222 225 228 231 234 236 238 240 241 242 243 241 240 241 241 242 242 243 244 245 247 249 250 252 253 254 255 257 258 259 261 262 263 264 266 268 270 271 272 273 275 277 278 280 280 281 280 279 278 280 283 285 285 284 284 285
218 220 221 221 221 220 221 223 225 226 226 227 226 227 228 228 226 226 226 227 227 226 224 221 219 220 223 224 222 221 223 225 228 232 235 236 238 239 241 242 244 244 243 243 244 244 244 244 245 246 247 249 251 252 254 255 256 257 258 259 260 262 264 266 268 270 271 272 272 274 276 278 279 279 280 280 280 278 279 282 284 285 285 285 284 284
220 222 222 222 222 222 222 223 224 225 226 227 228 229 229 228 227 226 226 226 226 224 222 220 218 219 222 223 222 222 223 225 228 232 234 235 236 238 239 241 243 244 244 244 244 245 245 245 246 247 248 250 252 254 255 256 256 257 258 259 261 262 265 267 269 270 271 272 274 276 277 278 278 279 279 280 280 280 281 284 285 285 285 285 284 283
223 224 225 225 224 223 223 223 223 223 223 223 225 227 228 228 227 226 226 225 224 223 221 218 218 218 220 222 222 222 223 226 229 232 233 234 235 238 240 241 243 244 244 244 245 245 246 246 246 248 250 252 253 254 255 256 257 257 259 260 262 263 266 267 269 270 272 273 275 276 276 277 278 278 279 280 281 282 283 284 286 286 286 286 285 285
224 224 225 225 224 223 222 222 222 222 221 220 221 224 226 227 226 226 226 225 224 223 221 219 218 219 220 220 221 222 224 227 231 234 234 234 236 238 239 241 243 244 245 245 245 245 245 247 248 248 250 251 252 253 254 255 257 258 260 262 263 265 266 268 269 271 272 274 275 276 276 277 278 278 280 281 283 284 286 286 287 287 287 287 287 286
223 222 222 223 223 221 220 219 220 221 220 219 219 221 222 224 224 224 225 224 223 222 221 219 219 219 220 221 222 223 226 229 233 234 234 233 235 237 239 240 242 244 245 245 245 244 243 245 247 247 248 249 250 251 253 255 257 259 262 264 266 267 267 269 270 272 274 275 275 276 276 277 278 279 280 282 284 286 288 288 289 289 289 288 288 288
221 221 220 220 221 220 218 216 217 218 218 218 218 218 219 221 222 223 223 223 223 222 221 221 221 222 223 224 225 227 230 232 233 233 232 232 234 236 239 240 242 243 245 245 245 244 243 243 244 246 247 248 250 252 254 257 259 261 263 265 266 267 268 269 271 272 273 274 275 276 277 278 279 280 282 284 285 287 288 289 290 290 290 289 289 289
220 220 218 217 219 220 217 214 215 217 216 216 216 216 216 218 220 220 221 222 222 223 223 222 223 225 226 227 229 230 232 233 233 232 232 232 233 236 238 240 242 244 246 247 246 245 244 243 243 245 247 249 251 254 256 258 260 261 263 264 265 267 268 270 271 272 273 275 276 278 279 280 281 282 284 285 286 287 288 289 289 289 289 289 289 289
220 221 218 215 217 217 213 212 215 216 215 214 215 214 214 215 216 217 219 220 221 222 222 222 223 224 224 226 228 229 231 231 231 231 231 232 233 235 238 240 243 245 247 247 247 246 245 244 244 245 247 249 252 255 256 258 259 261 263 264 266 268 269 271 272 273 274 276 277 279 280 282 283 284 285 285 286 287 288 288 288 288 288 288 288 288
219 219 215 212 213 211 206 207 212 213 212 212 213 213 213 213 214 215 216 218 219 220 221 221 223 224 224 224 226 227 228 229 229 230 231 232 233 235 238 240 242 243 245 246 247 246 246 245 245 246 247 249 251 253 255 257 259 261 263 265 267 269 271 272 273 274 275 276 278 280 281 283 284 285 285 286 287 287 287 287 287 286 286 286 287 288
213 213 209 207 207 204 201 205 208 208 208 209 209 211 211 212 213 213 214 216 217 219 220 221 223 224 225 225 226 227 228 229 230 231 232 233 234 235 237 239 241 242 243 245 246 246 245 246 246 246 246 248 250 252 254 256 258 261 263 265 267 269 271 273 274 275 276 278 280 281 283 284 285 286 286 287 287 287 286 285 285 285 285 285 286 288
203 202 202 200 199 199 201 205 206 204 204 205 206 208 210 210 212 213 214 216 217 219 221 222 223 225 226 227 227 228 230 231 231 232 233 234 235 236 237 239 240 241 242 244 245 245 244 244 245 245 245 247 250 252 253 256 258 260 263 265 267 269 271 273 275 276 278 280 281 283 284 286 287 287 288 287 286 285 284 284 284 285 285 286 288 288
194 194 196 196 196 198 201 204 203 201 201 202 203 205 207 209 211 212 214 216 218 220 222 223 225 227 228 229 229 229 230 231 232 233 234 235 236 237 238 239 240 241 242 243 244 244 244 243 244 245 246 248 250 252 254 256 258 261 263 265 267 269 271 274 276 277 279 281 282 284 285 287 288 288 288 286 285 284 284 284 285 285 286 287 288 289
189 191 194 194 196 198 199 200 199 198 199 201 202 203 206 208 210 212 214 216 218 220 223 225 227 228 229 230 231 231 232 233 235 236 236 237 237 237 238 239 240 240 241 243 244 245 245 244 244 245 247 248 250 252 254 256 258 261 263 265 267 269 271 274 276 277 279 280 282 284 286 288 289 288 287 286 284 284 284 285 286 287 288 288 289 290
186 190 193 195 196 197 196 196 196 196 197 199 201 203 205 208 211 213 215 217 220 222 224 226 228 229 230 231 232 232 232 234 235 237 237 238 239 239 240 241 242 242 242 243 245 246 246 245 244 245 247 249 250 252 254 256 258 261 263 265 267 269 271 273 275 277 279 281 284 286 288 289 289 288 286 285 284 284 285 286 287 288 289 290 291 291
185 187 190 194 196 197 195 194 194 196 198 199 201 203 206 209 211 213 215 217 220 223 225 227 229 230 231 232 233 233 233 234 235 238 239 240 241 241 241 242 243 244 243 243 245 246 246 245 244 244 246 248 250 251 254 256 259 261 263 265 267 269 271 273 275 277 280 283 285 287 288 289 289 286 284 284 284 285 287 288 289 290 291 292 293 293
184 184 185 188 192 194 196 196 196 197 199 201 203 205 208 210 212 214 215 218 221 223 225 228 230 231 232 233 234 235 235 236 238 240 241 241 241 241 241 242 243 244 244 244 245 245 245 244 243 244 245 247 249 251 253 256 259 261 263 265 268 270 272 274 276 278 281 283 285 286 287 288 287 285 284 284 286 287 289 290 291 292 293 293 293 293
179 180 182 185 188 190 193 196 198 200 201 204 206 209 211 212 214 216 218 220 223 224 226 229 231 232 234 235 237 238 239 240 240 241 241 242 242 242 242 242 242 244 245 245 245 245 244 242 243 244 245 247 249 251 253 256 258 261 264 266 269 272 274 276 277 280 282 283 285 286 287 287 286 285 285 286 288 289 290 291 292 292 293 294 294 294
177 178 181 185 188 189 191 195 198 202 204 206 208 210 212 214 217 218 220 223 226 227 229 231 234 235 237 238 240 241 242 241 240 240 240 240 241 241 242 242 242 243 244 244 244 244 243 242 243 244 245 247 249 252 254 257 260 263 266 269 272 273 275 277 279 281 282 284 285 285 285 285 284 285 286 288 289 290 290 291 292 293 293 294 294 294
178 179 181 185 188 190 192 195 199 202 204 206 208 210 213 215 218 220 222 226 229 231 233 235 237 239 241 242 243 243 242 241 239 239 239 239 239 239 240 240 240 241 242 242 242 243 242 243 244 245 247 249 252 255 258 261 264 266 269 271 273 275 277 279 281 282 284 284 284 284 284 284 285 287 288 288 289 290 290 291 292 293 293 294 294 294
180 182 184 187 190 192 194 198 201 203 205 208 210 212 216 218 221 223 226 228 232 235 237 239 241 242 242 242 242 241 240 240 239 239 239 239 239 238 239 239 239 240 241 242 242 243 244 244 246 247 250 253 256 258 261 264 266 268 271 273 275 277 279 280 282 283 283 283 283 284 285 286 287 287 288 288 289 290 291 292 292 293 294 294 294 294
183 186 188 191 193 196 198 201 204 206 207 210 213 216 219 221 224 227 229 231 234 236 238 240 242 242 241 242 242 241 240 239 238 237 236 236 236 236 237 238 239 240 241 242 243 244 246 247 248 250 253 255 257 260 262 264 267 269 272 274 275 277 278 280 281 281 281 282 283 285 286 286 286 287 288 289 290 291 291 292 293 293 294 295 295 296
187 189 192 195 197 199 202 205 208 209 210 213 215 218 220 223 225 228 230 232 233 235 237 240 242 242 242 243 243 241 240 239 237 235 233 233 233 234 236 238 240 241 242 243 245 247 249 251 252 253 255 257 259 261 264 266 268 270 272 274 275 276 277 278 279 281 282 283 284 285 285 286 287 288 289 290 291 291 292 293 293 294 295 296 297 297
191 192 195 198 201 203 206 208 210 212 213 215 217 219 221 223 224 227 230 232 233 235 238 240 241 241 239 238 236 236 237 238 239 237 235 233 233 234 237 239 240 242 244 246 248 250 252 254 256 258 260 262 263 265 267 269 271 273 274 275 276 277 278 279 281 282 283 284 285 286 286 287 288 289 290 291 292 292 293 293 294 295 296 297 297 298
194 197 199 202 204 206 209 211 212 213 214 216 218 220 221 222 222 224 227 230 231 231 233 234 234 233 232 231 231 231 233 235 238 239 238 237 237 238 240 241 243 244 247 249 252 254 257 258 260 262 264 265 267 269 271 272 273 275 276 277 278 279 280 281 282 283 284 285 286 287 288 288 289 290 291 292 292 293 293 294 295 296 297 298 298 299
194 198 201 204 206 208 211 213 214 214 214 215 217 219 220 220 220 221 222 224 223 223 224 225 225 225 226 226 226 227 228 230 233 236 237 238 241 243 245 246 247 249 251 253 256 258 260 261 263 265 266 268 270 271 273 274 275 276 277 278 279 280 281 282 283 284 285 286 287 288 289 290 290 291 291 292 293 293 294 295 296 297 297 298 299 300
195 198 201 204 207 209 212 213 214 214 213 213 213 214 214 215 216 216 217 218 217 217 217 218 220 221 222 224 226 226 228 230 232 234 234 236 240 244 246 247 249 250 252 255 257 259 261 263 265 266 268 269 271 272 273 274 275 277 278 280 281 282 283 284 285 285 286 287 288 289 289 290 290 291 291 292 293 294 295 296 296 297 298 299 300 301
Height
10578 10584 10594 10602 10606 10607 10609 10614 10618 10620 10621 10625 10629 10630 10631 10632 10634 10636 10639 10641 10644 10647 10647 10645 10649 10658 10667 10675 10680 10685 10691 10693 10694 10697 10699 10701 10703 10705 10707 10709 10712 10714 10715 10716 10717 10718 10719 10721 10724 10726 10727 10728 10728 10730 10732 10734 10734 10735 10736 10736 10737 10738 10739 10741 10742 10743 10744 10745 10746 10747 10747 10747 10747 10747 10747 10747 10747 10747 10746 10746 10745 10744 10744 10742 10742 10741
10572 10583 10593 10597 10597 10598 10601 10606 10609 10612 10614 10619 10624 10625 10626 10627 10628 10629 10631 10633 10637 10640 10640 10639 10645 10654 10662 10670 10676 10681 10687 10690 10692 10695 10697 10698 10699 10701 10703 10706 10708 10709 10710 10711 10712 10713 10714 10716 10719 10720 10721 10723 10723 10725 10727 10729 10730 10730 10731 10731 10732 10733 10734 10737 10738 10739 10740 10741 10742 10743 10744 10744 10743 10743 10743 10743 10743 10743 10742 10742 10741 10741 10740 10740 10739 10738
10571 10582 10587 10587 10589 10591 10594 10599 10603 10606 10608 10614 10619 10620 10621 10622 10622 10622 10623 10626 10632 10633 10632 10634 10640 10649 10658 10667 10673 10678 10683 10687 10692 10697 10697 10697 10698 10698 10700 10702 10703 10704 10705 10706 10707 10707 10708 10710 10713 10714 10715 10717 10718 10720 10722 10724 10725 10726 10726 10727 10728 10728 10729 10731 10733 10734 10735 10737 10738 10739 10740 10739 10739 10739 10739 10739 10739 10739 10738 10737 10737 10737 10736 10736 10735 10734
10567 10575 10578 10579 10582 10584 10588 10594 10598 10600 10604 10610 10614 10616 10617 10616 10616 10616 10615 10620 10625 10624 10624 10629 10635 10644 10654 10663 10670 10676 10681 10686 10694 10699 10698 10695 10694 10694 10695 10697 10697 10698 10699 10701 10701 10701 10702 10704 10707 10709 10710 10712 10713 10715 10716 10718 10720 10721 10722 10722 10723 10724 10725 10726 10728 10729 10730 10732 10733 10734 10734 10734 10734 10734 10735 10735 10735 10735 10734 10733 10733 10733 10733 10732 10731 10730
10560 10566 10568 10571 10574 10577 10583 10588 10593 10596 10601 10606 10609 10611 10610 10609 10610 10608 10607 10614 10616 10614 10618 10625 10631 10640 10650 10659 10667 10673 10679 10687 10693 10697 10697 10696 10693 10688 10688 10689 10689 10690 10692 10693 10694 10696 10697 10699 10702 10703 10705 10707 10708 10710 10711 10713 10715 10716 10717 10717 10718 10719 10720 10721 10723 10724 10726 10727 10728 10728 10728 10729 10729 10730 10730 10730 10730 10730 10729 10729 10728 10729 10729 10728 10727 10726
10552 10557 10560 10562 10566 10571 10577 10583 10589 10592 10596 10600 10603 10605 10602 10600 10601 10600 10602 10608 10609 10608 10614 10619 10625 10636 10646 10654 10662 10668 10675 10683 10688 10690 10690 10693 10693 10685 10681 10681 10680 10682 10684 10686 10688 10691 10693 10695 10697 10698 10699 10701 10703 10705 10707 10709 10710 10711 10712 10712 10713 10714 10715 10716 10718 10720 10721 10722 10723 10722 10722 10723 10723 10724 10724 10724 10724 10724 10724 10724 10724 10724 10724 10724 10722 10721
10546 10552 10553 10556 10561 10565 10571 10578 10583 10586 10590 10594 10597 10596 10593 10591 10594 10595 10598 10602 10603 10603 10607 10612 10619 10631 10641 10648 10656 10662 10669 10675 10679 10682 10683 10686 10686 10681 10676 10672 10671 10673 10677 10680 10683 10686 10689 10690 10692 10693 10695 10696 10698 10700 10702 10704 10705 10706 10707 10708 10708 10710 10711 10712 10713 10715 10716 10716 10717 10717 10717 10718 10718 10718 10718 10719 10719 10719 10719 10720 10720 10720 10719 10718 10717 10716
10541 10545 10546 10550 10554 10559 10567 10574 10578 10581 10584 10587 10589 10586 10583 10584 10587 10590 10593 10596 10596 10595 10599 10607 10616 10627 10637 10645 10651 10656 10662 10668 10672 10675 10680 10682 10681 10676 10669 10663 10662 10668 10672 10675 10677 10680 10683 10685 10687 10689 10690 10691 10693 10695 10697 10699 10700 10701 10702 10703 10704 10706 10706 10708 10709 10710 10710 10711 10711 10712 10712 10713 10713 10713 10713 10713 10713 10714 10714 10714 10714 10714 10714 10713 10712 10711
10532 10537 10541 10544 10549 10557 10566 10570 10572 10574 10576 10580 10578 10575 10575 10576 10580 10584 10588 10591 10589 10587 10594 10606 10616 10625 10634 10641 10646 10651 10657 10664 10668 10671 10675 10675 10671 10667 10660 10654 10658 10664 10667 10669 10672 10674 10677 10679 10681 10683 10685 10686 10688 10690 10692 10693 10694 10695 10697 10699 10700 10701 10702 10703 10705 10704 10705 10706 10707 10707 10708 10707 10707 10707 10707 10707 10708 10708 10708 10708 10709 10709 10708 10708 10707 10706
10523 10531 10534 10536 10544 10554 10559 10561 10563 10566 10569 10571 10567 10566 10568 10569 10574 10579 10583 10585 10582 10583 10595 10607 10616 10623 10630 10636 10641 10647 10654 10660 10663 10666 10667 10663 10659 10656 10652 10650 10656 10661 10662 10664 10666 10669 10672 10675 10677 10679 10680 10681 10683 10685 10686 10688 10689 10690 10692 10694 10695 10696 10697 10698 10699 10699 10699 10701 10701 10702 10702 10702 10702 10702 10702 10702 10702 10702 10702 10702 10702 10702 10702 10702 10702 10701
10515 10521 10525 10531 10540 10546 10547 10550 10554 10557 10562 10560 10556 10558 10561 10563 10568 10574 10578 10579 10578 10585 10598 10608 10614 10619 10625 10631 10636 10642 10648 10652 10654 10656 10655 10652 10651 10649 10646 10647 10654 10657 10659 10660 10662 10665 10668 10671 10673 10674 10675 10676 10677 10679 10681 10682 10683 10685 10687 10688 10690 10691 10692 10693 10692 10693 10694 10695 10696 10696 10696 10697 10697 10697 10697 10696 10696 10696 10696 10696 10695 10695 10695 10695 10695 10695
10508 10514 10522 10528 10533 10537 10539 10543 10546 10550 10554 10551 10548 10552 10555 10558 10562 10568 10574 10575 10581 10593 10601 10604 10609 10613 10619 10627 10631 10635 10639 10643 10645 10646 10646 10645 10645 10644 10644 10647 10652 10654 10656 10658 10660 10662 10664 10666 10668 10669 10670 10671 10672 10674 10676 10676 10677 10679 10682 10683 10685 10686 10687 10687 10687 10688 10689 10689 10690 10690 10690 10691 10691 10691 10691 10691 10690 10690 10690 10689 10689 10688 10688 10688 10688 10689
10503 10512 10519 10521 10526 10532 10535 10537 10540 10545 10548 10543 10541 10547 10552 10554 10559 10566 10573 10578 10589 10598 10596 10596 10601 10606 10614 10622 10624 10627 10630 10634 10638 10640 10641 10640 10640 10641 10643 10646 10648 10650 10653 10655 10656 10658 10658 10661 10663 10664 10666 10667 10668 10670 10671 10672 10673 10675 10678 10679 10681 10681 10682 10682 10683 10684 10684 10684 10684 10684 10685 10685 10686 10686 10686 10685 10684 10684 10684 10683 10682 10682 10681 10682 10682 10682
10500 10506 10511 10516 10524 10530 10532 10535 10539 10544 10546 10541 10541 10547 10552 10554 10558 10568 10575 10582 10591 10592 10587 10589 10593 10600 10610 10616 10617 10621 10624 10628 10634 10638 10637 10635 10636 10638 10640 10642 10644 10646 10648 10650 10652 10653 10653 10655 10657 10659 10661 10663 10665 10666 10666 10667 10669 10671 10673 10674 10675 10676 10677 10678 10678 10679 10679 10679 10679 10680 10680 10680 10680 10680 10680 10679 10678 10678 10677 10677 10677 10676 10675 10676 10676 10676
10494 10503 10511 10518 10524 10527 10530 10534 10536 10539 10539 10535 10536 10542 10546 10551 10559 10566 10572 10578 10585 10584 10579 10580 10586 10596 10606 10610 10613 10617 10620 10624 10630 10632 10631 10630 10632 10634 10635 10638 10639 10640 10642 10644 10646 10647 10648 10649 10651 10654 10656 10659 10661 10662 10662 10663 10665 10667 10668 10669 10670 10672 10673 10673 10673 10674 10674 10675 10675 10675 10675 10675 10675 10674 10674 10673 10673 10672 10672 10671 10671 10670 10670 10670 10670 10670
10488 10499 10508 10512 10516 10520 10524 10527 10527 10527 10528 10527 10528 10534 10544 10553 10557 10559 10563 10570 10575 10574 10570 10572 10582 10594 10601 10604 10609 10612 10616 10621 10624 10625 10625 10627 10628 10628 10630 10632 10634 10635 10636 10638 10640 10641 10644 10645 10646 10649 10652 10655 10657 10657 10658 10659 10662 10663 10663 10665 10666 10667 10667 10667 10668 10669 10669 10670 10670 10670 10670 10669 10669 10669 10668 10667 10667 10667 10666 10666 10666 10665 10665 10665 10664 10665
10485 10493 10496 10499 10505 10511 10515 10518 10517 10519 10524 10522 10522 10535 10549 10550 10545 10547 10554 10562 10565 10565 10566 10570 10581 10591 10595 10599 10604 10608 10613 10618 10621 10622 10622 10623 10623 10623 10625 10627 10628 10630 10631 10633 10634 10637 10640 10642 10643 10646 10648 10650 10652 10653 10653 10655 10657 10658 10659 10661 10661 10661 10661 10662 10663 10664 10664 10664 10664 10665 10664 10664 10664 10663 10663 10662 10661 10661 10661 10661 10660 10660 10659 10659 10659 10659
10478 10484 10486 10491 10498 10502 10504 10506 10506 10511 10515 10515 10522 10537 10542 10533 10530 10538 10546 10553 10557 10560 10564 10570 10578 10587 10592 10596 10601 10606 10612 10617 10619 10618 10616 10617 10617 10618 10620 10621 10623 10624 10625 10628 10630 10632 10636 10638 10640 10641 10643 10645 10647 10647 10649 10651 10652 10653 10655 10656 10656 10656 10656 10657 10658 10659 10659 10659 10659 10659 10659 10659 10658 10658 10658 10657 10656 10656 10655 10655 10654 10654 10653 10653 10653 10652
10469 10473 10476 10485 10491 10493 10494 10495 10497 10502 10507 10512 10521 10527 10523 10518 10525 10534 10541 10549 10554 10558 10563 10568 10575 10583 10589 10594 10598 10603 10607 10610 10609 10607 10607 10609 10609 10611 10613 10615 10616 10618 10620 10623 10626 10629 10632 10634 10635 10636 10638 10641 10642 10643 10644 10646 10648 10649 10650 10650 10650 10650 10651 10653 10654 10654 10654 10655 10654 10655 10654 10654 10653 10653 10652 10652 10651 10651 10650 10649 10648 10647 10647 10647 10646 10646
10462 10466 10471 10478 10482 10482 10483 10487 10495 10502 10506 10510 10511 10510 10508 10513 10523 10530 10537 10545 10548 10553 10560 10565 10571 10579 10586 10592 10595 10597 10599 10599 10597 10597 10598 10599 10601 10604 10606 10608 10611 10614 10617 10621 10624 10626 10628 10630 10631 10632 10635 10637 10637 10639 10641 10643 10644 10644 10645 10645 10645 10645 10646 10648 10649 10649 10650 10650 10650 10650 10649 10649 10648 10647 10647 10647 10646 10646 10645 10644 10643 10642 10641 10640 10640 10640
10455 10460 10465 10470 10472 10473 10478 10489 10499 10503 10504 10504 10503 10503 10508 10516 10522 10526 10530 10536 10541 10548 10556 10561 10568 10576 10581 10586 10589 10590 10592 10593 10592 10592 10592 10594 10596 10599 10601 10604 10608 10611 10615 10618 10621 10623 10624 10626 10626 10629 10631 10632 10632 10635 10637 10638 10639 10640 10640 10640 10640 10640 10642 10643 10644 10644 10645 10644 10644 10644 10644 10643 10643 10642 10642 10642 10641 10641 10640 10639 10638 10637 10636 10635 10634 10634
10450 10454 10457 10461 10465 10471 10481 10492 10495 10493 10494 10496 10498 10503 10509 10516 10519 10521 10526 10533 10540 10547 10553 10559 10566 10572 10574 10578 10581 10582 10584 10586 10587 10587 10588 10590 10592 10594 10596 10600 10604 10608 10611 10614 10617 10618 10619 10620 10622 10625 10627 10627 10628 10630 10633 10634 10634 10634 10635 10635 10635 10636 10637 10637 10638 10639 10639 10639 10639 10639 10638 10637 10637 10636 10636 10636 10636 10635 10634 10634 10632 10631 10630 10629 10628 10628
10443 10446 10450 10456 10463 10471 10478 10481 10480 10481 10484 10487 10490 10496 10500 10505 10510 10515 10523 10532 10538 10544 10550 10556 10562 10565 10568 10572 10574 10576 10578 10580 10581 10583 10584 10586 10588 10589 10591 10594 10599 10603 10606 10609 10611 10611 10613 10615 10617 10619 10621 10621 10623 10626 10628 10629 10629 10628 10629 10629 10630 10631 10631 10632 10633 10634 10634 10634 10634 10633 10632 10632 10631 10631 10630 10630 10630 10629 10628 10628 10627 10625 10624 10623 10622 10621
10436 10440 10446 10452 10459 10466 10469 10471 10472 10474 10476 10479 10483 10487 10491 10497 10504 10512 10519 10525 10530 10537 10544 10550 10557 10561 10565 10568 10570 10572 10574 10576 10578 10580 10582 10583 10583 10584 10586 10589 10593 10597 10600 10603 10605 10605 10607 10610 10612 10614 10615 10617 10619 10621 10623 10623 10623 10622 10623 10624 10625 10626 10626 10627 10627 10628 10628 10628 10628 10628 10627 10626 10625 10625 10624 10624 10623 10623 10622 10621 10620 10619 10618 10617 10616 10615
10431 10436 10440 10445 10452 10457 10461 10463 10464 10466 10470 10475 10480 10483 10487 10493 10501 10507 10511 10514 10520 10529 10538 10545 10552 10557 10559 10562 10566 10568 10570 10573 10576 10578 10579 10579 10579 10581 10583 10586 10589 10592 10595 10598 10598 10600 10603 10605 10607 10609 10611 10613 10615 10616 10617 10617 10617 10617 10618 10619 10620 10620 10621 10621 10622 10622 10622 10622 10622 10621 10621 10621 10620 10619 10618 10617 10617 10616 10616 10615 10614 10613 10612 10611 10610 10609
10425 10429 10433 10439 10446 10452 10455 10458 10460 10464 10469 10474 10479 10482 10485 10490 10497 10502 10505 10509 10518 10527 10535 10542 10549 10552 10554 10557 10561 10563 10566 10570 10573 10574 10574 10574 10575 10577 10580 10582 10584 10587 10590 10592 10593 10595 10597 10600 10602 10604 10606 10609 10610 10611 10611 10611 10611 10612 10613 10614 10614 10615 10616 10617 10617 10617 10616 10616 10615 10615 10615 10615 10614 10613 10612 10611 10610 10610 10609 10608 10608 10606 10605 10604 10603 10602
10420 10424 10428 10435 10440 10444 10447 10450 10454 10458 10464 10471 10477 10479 10481 10487 10494 10498 10500 10507 10516 10524 10531 10538 10544 10548 10550 10553 10556 10559 10562 10566 10567 10568 10568 10569 10571 10573 10576 10578 10580 10582 10584 10586 10587 10589 10592 10595 10597 10599 10602 10604 10605 10605 10604 10605 10605 10606 10607 10607 10609 10610 10611 10612 10611 10611 10610 10609 10609 10610 10610 10609 10608 10607 10605 10604 10604 10603 10603 10602 10601 10599 10598 10597 10596 10595
10416 10421 10426 10430 10433 10436 10440 10443 10446 10450 10457 10464 10469 10472 10476 10481 10487 10491 10496 10504 10512 10520 10527 10534 10538 10542 10545 10548 10552 10555 10558 10560 10561 10562 10563 10565 10568 10571 10573 10575 10576 10578 10579 10581 10582 10585 10588 10590 10592 10595 10598 10599 10599 10598 10597 10598 10599 10599 10600 10601 10604 10606 10606 10606 10606 10605 10604 10604 10604 10604 10603 10602 10601 10600 10599 10598 10598 10597 10596 10595 10594 10592 10591 10590 10589 10588
10412 10416 10419 10421 10425 10430 10435 10438 10442 10446 10451 10456 10459 10463 10468 10475 10482 10488 10495 10502 10510 10517 10524 10529 10533 10537 10540 10544 10548 10550 10553 10555 10556 10558 10561 10563 10566 10568 10570 10571 10572 10573 10574 10576 10578 10581 10584 10586 10589 10591 10593 10592 10591 10591 10591 10592 10592 10593 10595 10597 10599 10601 10601 10600 10600 10599 10599 10599 10598 10598 10597 10596 10594 10593 10592 10592 10591 10590 10589 10588 10587 10585 10584 10583 10582 10581
10406 10408 10411 10415 10420 10424 10428 10432 10437 10442 10446 10450 10452 10456 10463 10471 10478 10485 10492 10499 10507 10514 10519 10523 10528 10532 10536 10541 10544 10547 10549 10551 10553 10555 10558 10560 10562 10563 10565 10566 10567 10568 10569 10571 10574 10577 10580 10582 10585 10586 10585 10584 10584 10585 10586 10586 10587 10589 10591 10593 10594 10594 10594 10594 10594 10594 10594 10593 10592 10591 10590 10589 10588 10587 10586 10586 10585 10584 10583 10581 10580 10578 10577 10576 10575 10574
10400 10402 10405 10410 10414 10418 10424 10429 10432 10436 10440 10444 10448 10453 10460 10468 10475 10482 10489 10496 10504 10510 10514 10519 10525 10530 10534 10538 10541 10543 10546 10548 10550 10552 10554 10556 10557 10558 10560 10561 10562 10564 10565 10567 10570 10572 10575 10578 10580 10579 10578 10578 10579 10580 10581 10582 10583 10584 10586 10587 10587 10588 10588 10588 10589 10588 10588 10586 10585 10584 10583 10582 10581 10580 10580 10579 10578 10577 10576 10575 10573 10571 10570 10569 10567 10566
10394 10396 10399 10405 10409 10414 10421 10426 10428 10431 10435 10440 10444 10450 10457 10464 10471 10479 10487 10494 10500 10506 10512 10518 10524 10528 10531 10533 10536 10539 10541 10543 10545 10548 10549 10551 10552 10554 10555 10557 10559 10561 10562 10564 10566 10568 10571 10573 10574 10573 10574 10574 10575 10576 10577 10578 10578 10579 10579 10580 10581 10582 10583 10583 10583 10582 10581 10580 10579 10577 10576 10575 10574 10574 10573 10572 10571 10570 10569 10568 10566 10564 10563 10561 10560 10558
10389 10391 10396 10401 10405 10411 10420 10424 10425 10427 10432 10437 10442 10448 10454 10461 10468 10477 10484 10490 10497 10503 10510 10515 10518 10520 10524 10527 10529 10532 10535 10537 10540 10542 10544 10546 10547 10549 10552 10554 10556 10558 10559 10560 10561 10564 10566 10567 10567 10568 10570 10571 10571 10572 10572 10572 10572 10573 10574 10575 10576 10577 10577 10577 10576 10575 10574 10573 10572 10571 10570 10569 10568 10567 10566 10565 10564 10563 10562 10561 10559 10557 10555 10553 10551 10550
10386 10389 10393 10398 10403 10410 10416 10418 10420 10424 10430 10435 10442 10448 10454 10460 10467 10475 10481 10487 10494 10500 10505 10508 10511 10515 10518 10521 10523 10526 10529 10531 10534 10536 10538 10541 10543 10546 10549 10550 10552 10554 10554 10555 10557 10559 10560 10561 10562 10564 10565 10566 10566 10566 10566 10566 10567 10568 10569 10570 10570 10570 10570 10570 10569 10569 10568 10567 10566 10565 10564 10563 10561 10560 10559 10558 10557 10556 10555 10553 10551 10549 10547 10545 10544 10542
10383 10386 10391 10395 10401 10407 10411 10412 10416 10422 10429 10435 10441 10447 10453 10459 10466 10472 10479 10485 10491 10496 10499 10503 10507 10511 10514 10517 10520 10522 10524 10527 10529 10531 10533 10536 10539 10542 10544 10545 10546 10548 10549 10550 10553 10555 10555 10556 10558 10559 10559 10560 10560 10560 10561 10561 10562 10562 10563 10564 10564 10564 10564 10564 10563 10562 10562 10561 10560 10559 10557 10556 10554 10553 10552 10551 10550 10548 10547 10545 10543 10541 10539 10538 10536 10534
10380 10384 10388 10394 10399 10404 10408 10410 10416 10422 10428 10434 10440 10446 10452 10459 10466 10472 10478 10484 10488 10492 10495 10499 10503 10506 10510 10513 10515 10518 10520 10522 10524 10525 10528 10531 10534 10537 10538 10539 10540 10542 10544 10546 10548 10550 10550 10551 10552 10553 10553 10554 10555 10555 10555 10556 10556 10557 10558 10558 10559 10558 10558 10557 10556 10556 10555 10554 10553 10552 10550 10549 10547 10546 10544 10543 10541 10540 10538 10537 10535 10533 10531 10529 10528 10526
10377 10382 10387 10393 10398 10403 10407 10412 10417 10423 10428 10433 10439 10445 10452 10458 10465 10471 10476 10480 10484 10488 10491 10495 10499 10502 10506 10508 10511 10513 10515 10517 10518 10521 10524 10527 10529 10531 10532 10533 10534 10537 10539 10541 10543 10544 10544 10545 10546 10547 10549 10550 10550 10550 10550 10550 10551 10552 10552 10552 10553 10553 10552 10551 10550 10549 10548 10548 10547 10545 10544 10542 10540 10538 10536 10535 10533 10532 10530 10528 10526 10525 10523 10521 10519 10517
10377 10381 10386 10392 10396 10401 10406 10412 10417 10423 10427 10433 10439 10445 10451 10457 10462 10467 10471 10476 10480 10484 10488 10491 10494 10498 10501 10503 10506 10508 10510 10512 10514 10517 10519 10521 10522 10524 10526 10526 10528 10531 10534 10536 10538 10539 10539 10540 10541 10543 10544 10545 10545 10545 10544 10545 10545 10545 10546 10547 10547 10546 10546 10545 10544 10543 10542 10541 10540 10538 10537 10535 10533 10531 10529 10527 10525 10523 10522 10520 10518 10516 10514 10512 10510 10508
10377 10381 10386 10390 10395 10400 10405 10411 10417 10422 10427 10432 10438 10444 10450 10455 10460 10464 10469 10475 10479 10482 10484 10486 10489 10492 10495 10497 10500 10503 10505 10507 10508 10510 10513 10515 10517 10519 10521 10521 10523 10527 10530 10532 10533 10533 10534 10535 10536 10537 10539 10540 10540 10539 10539 10539 10539 10539 10539 10540 10541 10540 10539 10538 10537 10536 10535 10534 10533 10531 10529 10527 10525 10523 10521 10519 10517 10515 10513 10511 10509 10507 10505 10503 10501 10498
10377 10382 10387 10392 10397 10402 10407 10411 10416 10421 10426 10431 10437 10443 10448 10452 10457 10462 10468 10472 10474 10476 10478 10480 10483 10487 10489 10491 10494 10497 10499 10500 10502 10505 10508 10510 10511 10513 10515 10517 10519 10521 10524 10526 10527 10528 10528 10529 10531 10533 10534 10534 10534 10534 10533 10533 10533 10533 10533 10534 10534 10533 10533 10532 10531 10530 10528 10527 10526 10524 10522 10520 10518 10516 10514 10511 10509 10507 10505 10503 10500 10498 10496 10494 10492 10489
10380 10384 10389 10394 10400 10406 10411 10415 10418 10422 10427 10432 10437 10441 10445 10450 10455 10461 10465 10466 10467 10469 10472 10475 10478 10481 10484 10486 10489 10491 10493 10496 10499 10501 10502 10503 10505 10507 10509 10511 10513 10516 10518 10521 10522 10522 10523 10524 10526 10527 10528 10528 10528 10528 10527 10527 10527 10527 10527 10527 10527 10526 10526 10526 10525 10523 10522 10520 10519 10517 10515 10513 10511 10508 10506 10504 10502 10499 10497 10494 10492 10489 10487 10485 10482 10480
10381 10386 10390 10395 10400 10405 10411 10416 10420 10424 10429 10433 10437 10441 10445 10450 10454 10456 10458 10459 10461 10464 10467 10470 10473 10476 10479 10482 10483 10485 10488 10492 10494 10494 10495 10497 10499 10501 10503 10506 10508 10510 10513 10514 10515 10516 10518 10519 10520 10521 10522 10522 10522 10522 10521 10521 10521 10521 10521 10521 10520 10520 10519 10519 10518 10516 10515 10513 10512 10509 10507 10505 10503 10501 10499 10496 10494 10491 10489 10486 10483 10481 10478 10475 10472 10469
10380 10384 10389 10394 10399 10404 10409 10415 10420 10424 10427 10431 10435 10440 10444 10446 10448 10450 10452 10454 10456 10460 10464 10467 10470 10473 10475 10477 10479 10481 10484 10486 10487 10488 10489 10491 10493 10496 10498 10501 10503 10504 10506 10508 10509 10510 10512 10513 10515 10516 10517 10517 10516 10516 10516 10516 10516 10515 10516 10515 10515 10514 10513 10511 10510 10509 10508 10506 10504 10502 10500 10497 10495 10493 10491 10489 10486 10483 10480 10477 10475 10472 10469 10466 10463 10459
10379 10383 10388 10392 10397 10402 10407 10411 10414 10417 10421 10426 10430 10434 10436 10438 10441 10444 10447 10450 10453 10457 10461 10464 10467 10469 10471 10472 10474 10476 10477 10479 10481 10482 10484 10487 10489 10491 10493 10495 10497 10498 10500 10501 10503 10504 10506 10508 10509 10511 10512 10512 10512 10512 10512 10511 10511 10511 10510 10510 10509 10507 10506 10504 10503 10502 10500 10498 10496 10494 10492 10490 10488 10486 10483 10481 10478 10475 10472 10468 10466 10463 10460 10457 10453 10450
10380 10384 10388 10391 10395 10399 10402 10405 10409 10413 10418 10423 10427 10429 10432 10435 10438 10442 10445 10448 10451 10455 10458 10460 10462 10464 10466 10468 10469 10471 10472 10474 10476 10478 10481 10483 10486 10487 10488 10490 10491 10492 10494 10496 10498 10499 10501 10503 10504 10506 10507 10507 10508 10507 10507 10506 10506 10505 10505 10504 10503 10501 10499 10498 10497 10495 10493 10491 10489 10487 10485 10482 10480 10478 10475 10473 10470 10467 10463 10460 10456 10453 10450 10447 10443 10440
10380 10384 10387 10391 10394 10398 10401 10405 10409 10414 10418 10421 10424 10427 10430 10434 10437 10440 10443 10446 10449 10452 10454 10456 10458 10460 10462 10464 10466 10467 10468 10470 10472 10475 10477 10479 10481 10482 10483 10485 10486 10488 10490 10491 10492 10494 10496 10497 10499 10501 10501 10502 10502 10502 10501 10501 10500 10500 10499 10498 10496 10495 10493 10491 10490 10488 10485 10483 10481 10479 10477 10475 10472 10470 10467 10465 10462 10458 10454 10450 10447 10443 10440 10436 10433 10430
10380 10384 10388 10392 10395 10399 10402 10405 10409 10412 10416 10419 10422 10425 10427 10431 10434 10437 10439 10442 10445 10448 10451 10453 10455 10458 10460 10462 10463 10464 10465 10467 10469 10471 10473 10475 10477 10478 10479 10481 10483 10485 10486 10486 10487 10489 10490 10492 10493 10494 10495 10496 10496 10495 10495 10495 10495 10494 10493 10491 10490 10488 10486 10484 10483 10480 10478 10476 10474 10472 10470 10467 10464 10461 10459 10456 10453 10449 10445 10441 10437 10434 10430 10427 10423 10420
10380 10384 10387 10391 10394 10397 10400 10403 10406 10409 10413 10416 10419 10421 10424 10428 10431 10434 10436 10439 10442 10445 10448 10450 10453 10455 10457 10458 10460 10461 10462 10463 10465 10467 10469 10471 10473 10474 10476 10478 10480 10481 10481 10482 10483 10484 10485 10486 10487 10488 10489 10489 10489 10488 10488 10488 10487 10487 10486 10484 10482 10481 10479 10477 10475 10473 10471 10469 10467 10464 10461 10459 10456 10452 10449 10447 10444 10440 10436 10432 10429 10425 10421 10418 10414 10410
10380 10384 10387 10389 10392 10395 10397 10400 10402 10406 10410 10413 10416 10419 10422 10426 10429 10431 10434 10437 10440 10443 10445 10448 10450 10451 10453 10454 10456 10458 10459 10461 10462 10464 10466 10468 10470 10471 10472 10474 10476 10477 10477 10477 10478 10479 10479 10480 10480 10481 10482 10482 10481 10481 10481 10480 10479 10479 10477 10476 10475 10473 10472 10470 10468 10466 10464 10461 10459 10456 10453 10450 10447 10444 10440 10437 10434 10431 10428 10424 10420 10416 10413 10409 10406 10402
10378 10382 10385 10387 10390 10392 10395 10397 10401 10404 10408 10412 10415 10418 10421 10424 10427 10429 10432 10435 10438 10440 10442 10444 10446 10448 10450 10451 10453 10454 10456 10458 10459 10461 10463 10465 10467 10467 10468 10470 10471 10472 10472 10472 10473 10474 10474 10474 10474 10475 10475 10475 10474 10474 10473 10472 10472 10471 10470 10469 10468 10466 10465 10463 10461 10458 10456 10453 10451 10448 10445 10442 10438 10435 10432 10428 10425 10422 10419 10416 10412 10408 10404 10401 10398 10394
10378 10381 10383 10386 10389 10392 10394 10397 10400 10404 10407 10411 10414 10417 10420 10423 10426 10428 10431 10433 10435 10437 10440 10442 10443 10445 10447 10448 10449 10451 10453 10454 10456 10457 10459 10461 10462 10463 10464 10465 10466 10466 10467 10468 10469 10468 10468 10468 10468 10468 10468 10468 10468 10467 10466 10465 10464 10464 10463 10462 10461 10459 10457 10455 10453 10450 10447 10445 10442 10439 10436 10433 10430 10427 10423 10420 10416 10414 10411 10408 10405 10401 10397 10393 10390 10387